Погода Черновцы

Погода Черновцы : погода сейчас, прогноз погоды и архив. Всё, что Вы хотите узнать о погоде Черновцы!

Поиск расширенной информации на нашем сайте:

Полезная информация:

Другие новости

Новости СМИ2

Главная страница сайта

Новости сайта

03.07.2017

Напоминаем, что на нашем специализированном сайте Метеоцентр.Азия вы можете получить высокодетализированные автоматические прогнозы погоды по пунктам России, СНГ и мира в авиационном формате (включающие направление и скорость ветра, видимость, явления погоды, количество и форму облачности, нижнюю и верхнюю границу облачности).

Рекомендуем:

Погода Черновцы - сегодня

Время (UTC), дата Ветер
(°,м/с) 
Видим.   Явления Облачность Т
(°С)
Тd
(°С)
f(%) Тe
(°С)
Pmin
(гПа)
dP
(гПа)
Po
(мм)
O2
(г/м3)
Тmin Tmax R s Состояние
почвы
00 22.05.19 220 (ЮЗ) 50000 м    8/0 средняя, верхняя 
[Ac trans|Ci fib]
+13.4 +9.1 75 +15  1009.6  -0.1  735  281           
03 22.05.19 тихо ()   50000 м    8/0 средняя, верхняя 
[Ac trans|Ci fib]
+12.6 +7.8 73 +13  1009.2  -0.5  735  282           
06 22.05.19 180 (Ю) 50000 м    8/0 средняя, верхняя 
[Ac trans|Ci fib]
+16 +9.1 64 +17  1009  0.2  735  278  +12.4  -1.9       
09 22.05.19 200 (Ю) 50000 м    8/5 1500 м верхняя 
[Cu hum|Ci fib]
+21 +8.6 45 +21  1008.2  -0.3  735  274           
12 22.05.19 270 (З) 50000 м    8/8 1500 м 
[Cu hum]
+21.4 +6.6 38 +21  1008.2  735  274           
15 22.05.19 350 (С) 50000 м    8/4 1500 м средняя 
[Cu hum|Ac trans]
+21.5 +7.6 41 +22  1007.5  -0.6  735  273           
18 22.05.19 190 (Ю) 50000 м    8/8 1500 м 
[Sc]
+18.4 +8.5 52 +20  1007.8  735  276    +22.6       
21 22.05.19 190 (Ю) 50000 м    9/9 1500 м 
[Sc]
+16.3 +8.1 58 +17  1008.3  0.2  735  278           
00 23.05.19 220 (ЮЗ) 50000 м    8/0 средняя 
[Ac trans]
+14.8 +8.8 67 +16  1008.1  -0.3  734  279           
03 23.05.19 230 (ЮЗ) 50000 м    9/9 1500 м кучево-дожд. 
[Cb calv]
+14.3 +9.1 71 +16  1008  -0.1  734  280           
06 23.05.19 тихо ()   40000 м    8/8 1500 м 
[Sc]
+16 +12.6 80 +21  1008.9  735  277  +13.6  +1.9       
09 23.05.19 330 (СЗ) 50000 м    8/4 1500 м средняя 
[Cu hum|Ac trans]
+19.7 +12.5 63 +25  1009  0.5  736  274           
12 23.05.19 080 (В) 50000 м    8/8 1000 м кучево-дожд. 
[Cb calv]
+21.5 +10.2 49 +23  1008.4  -0.5  735  273           
15 23.05.19 300 (СЗ) 50000 м    8/8 1000 м кучево-дожд. 
[Cb calv]
+21.4 +9.2 46 +22  1008.3  -0.1  735  273           
18 23.05.19 290 (З) 50000 м    5/3 1000 м кучево-дожд., средняя 
[Cb calv|Ac trans]
+18.3 +11.6 65 +23  1009.5  0.9  736  276    +22.8       
21 23.05.19 310 (СЗ) 50000 м    6/0 верхняя 
[Ci fib]
+16.3 +11.6 74 +21  1010.6  0.9  736  278           
00 24.05.19 300 (СЗ) 50000 м    8/0 верхняя 
[Ci fib]
+15 +10.1 72 +17  1010.5  -0.2  736  279           
03 24.05.19 310 (СЗ) 50000 м    8/8 240 м кучево-дожд. 
[Cb calv]
+14.2 +12.4 89 +19  1010.6  736  280           
06 24.05.19 300 (СЗ) 25000 м    10/10 270 м 
[St]
+15.2 +13.2 88 +21  1010.7  0.2  736  278  +14         
09 24.05.19 310 (СЗ) 30000 м    9/9 400 м 
[St]
+16.3 +12.9 80 +22  1010.9  0.3  737  278           
12 24.05.19 320 (СЗ) 50000 м    6/6 1500 м 
[Cu hum]
+20.2 +12.3 60 +25  1008.7  -1.8  735  273           
15 24.05.19 330 (СЗ) 50000 м  гроза без осадков  9/6 1000 м кучево-дожд., средняя 
[Cb cap|Ac trans]
+21.8 +10.4 48 +24  1008.6  0.1  735  273           
18 24.05.19 350 (С) 20000 м  в посл. час ливневой дождь{гроза}  9/5 1000 м кучево-дожд., средняя 
[Cb calv|Ac trans]
+14.7 +13.1 90 +21  1009.1  -0.2  735  278    +22.7     
21 24.05.19 310 (СЗ) 25000 м    8/8 1500 м 
[Sc]
+13.6 +12.1 91 +18  1009.7  0.5  736  280           
00 25.05.19 300 (СЗ) 15000 м    9/0 средняя 
[Ac trans]
+13.5 +12.2 92 +18  1009.3  -0.4  735  280           
Время (UTC), дата Ветер
(°,м/с) 
Видим.   Явления Облачность Т
(°С)
Тd
(°С)
f(%) Тe
(°С)
Pmin
(гПа)
dP
(гПа)
Po
(мм)
O2
(г/м3)
Тmin Tmax R s Состояние
почвы

Для получения пояснительной информации подведите курсор к названию столбца.

ПОГОДА Черновцы - архив

Всё, что Вы хотите узнать о погоде Черновцы - удобно и подробно!

Выберите нужную дату (начиная с 1 января 2018* года) и нажмите кнопку "Найти".
Будут отображены архивные сводки погоды по пункту Черновцы, начиная с указанной даты.


Отображать данные в формате CSV (для использования в таблицах Excel)


Внимание! Наш архив погоды предназначен исключительно для личного некоммерческого использования в познавательных целях. Если Вам необходимы официальные справки о состоянии погоды (для производственных, юридических, коммерческих и т.п. целей), обращайтесь в органы Росгидромета.

*Примечание: данная дата относится к архиву по метеостанциям СССР (Россия, СНГ, Балтия).
Архив по метеостанциям Зарубежной Европы и Азии (кроме Китая) хранится 10 дней, по другим регионам земного шара (Китай, Африка, Америка, Австралия, Океания) - 1 день.

Черновцы - район местоположения метеостанции


Название, широта, долгота, высота метеостанции:
Черновцы 48.4°ш. 25.9°д. 246 м над ур. моря [Украина]

Дополнительная информация

В oтличие oт бoльшинства пoгoдных сайтoв мы публикуем пoдрoбную метеoинфoрмацию в детальнoм прoфессиoнальнoм фoрмате.

Характеристики температуры и влажнoсти вoздуха измеряются на высoте 2 м в тени вдали oт зданий и деревьев.
Скoрoсть ветра измеряется на высoте 10 м (на урoвне рoста челoвека скoрoсть ветра ниже в 1.5-2 раза). Если метеoстанция нахoдится в гoрoде или в лесу, тo скoрoсть ветра занижена на 2-4 м/с пo сравнению с oткрытым местoм. Скoрoсть ветра над акватoриями крупных рек и oзёр, а также на вершинах хoлмoв на 2-5 м/с выше, чем в oбычных услoвиях.
Атмoсфернoе давление в разных тoчках местнoсти мoжет значительнo oтличаться oт давления на метеoстанции, в зависимoсти oт услoвий рельефа (при пoдъёме на 10 м давление пoнижается примернo на 1 мм рт.ст.).